Погода в Верее

Россия / Московская область     55°36′49″N   38°02′18″E
темп.,
°C
ветер,
м/с
пор.,
м/с
влажн.,
%
обл.,
%
осадки,
мм/ч
давл.,
гПа
погр.,
м
12 мая, ср
ср1200:00+12ю229349 0.0 102627
03:00+9юв33927 0.0 102641
06:00+10юв229086 0.0 102775
09:00+14св227244 0.0 1026397
12:00+17всв377098 0.1 1023847
15:00+19в71273100 2.1 10211467
18:00+14вюв51593100 2.4 1019735
21:00+13вюв71394100 5.6 1019923
13 мая, чт
чт1300:00+8ююв379714 0.3 1021205
03:00+8юв3594100 0.3 1021301
06:00+8в369528 0.0 1021212
09:00+13вюв467790 0.0 1020476
12:00+17вюв566391 0.0 1018900
15:00+18в5759100 0.0 10151180
18:00+16юв698399 0.7 1014844
21:00+9ююз38945 5.6 1015200
14 мая, пт
пт1400:00+8ю3797100 0.0 1016150
03:00+7ю34955 0.0 101764
06:00+9ю259312 0.0 1018158
09:00+14ююв3577100 0.0 1018516
12:00+17юв4565100 0.0 1018782
15:00+20юв5669100 0.1 10161250
18:00+18вюв4883100 2.3 1014302
21:00+15св4796100 14.3 1013139
15 мая, сб
сб1500:00+14вюв349698 1.9 101271
03:00+14юв3493100 1.9 101163
06:00+15ююв61393100 1.1 1012431
09:00+18вюв2677100 1.1 1009369
12:00+16вюв3894100 2.5 1010215
15:00+20ююв68760 4.4 1009802
18:00+20ююз61079100 0.4 1008871
21:00+15ююз512895 2.2 1009322
16 мая, вс
вс1600:00+13ююз411952 0.0 1010279
03:00+12ююз4109771 0.0 1011280
06:00+12зюз599092 0.0 1013481
09:00+16юз68775 0.0 1014790
12:00+19зюз566161 0.0 10141650
15:00+19зюз45618 0.1 10151403
18:00+19зюз23665 0.0 10151004
21:00+14с117899 0.0 101710